Regional Weather Roundup
Issued by NWS

Home | Current Version | Previous Version | Text Only | Print | Product List | Glossary On
Versions: 1 2 3 4 5 6 7 8 9 10 11 12 13 14 15 16 17 18 19 20 21 22 23 24 25 26 27 28 29 30 31 32 33 34 35 36 37 38 39 40 41 42 43 44 45 46 47 48 49 50
015
ASUS45 KBOI 290610
RWRID

IDAHO REGIONAL WEATHER ROUNDUP
NATIONAL WEATHER SERVICE BOISE ID
1200 AM MDT FRI APR 29 2016

NOTE: "FAIR" INDICATES FEW OR NO CLOUDS BELOW 12000 FEET
WITH NO SIGNIFICANT WEATHER AND/OR OBSTRUCTIONS TO VISIBILITY

IDZ012-014-290700-
SOUTHWEST IDAHO


CITY           SKY/WX    TMP DP  RH WIND       PRES   REMARKS
BOISE          MOCLDY    54  34  46 N9        29.87R
CALDWELL       MOCLDY    53  38  56 W9        29.90R
MOUNTAIN HOME  PTCLDY    51  35  55 NW13      29.86S
$$

IDZ016-017-290700-
SOUTHCENTRAL IDAHO


CITY           SKY/WX    TMP DP  RH WIND       PRES   REMARKS
BURLEY         CLOUDY    46  40  79 CALM      29.86S
JEROME         CLOUDY    46  42  86 E10       29.86F
TWIN FALLS     PTCLDY    44  35  70 SW12      29.86S
$$

IDZ019>023-290700-
SOUTHEAST IDAHO


CITY           SKY/WX    TMP DP  RH WIND       PRES   REMARKS
IDAHO FALLS    CLOUDY    39  27  62 CALM      29.90R
POCATELLO      PTCLDY    42  31  64 NW5       29.88R
REXBURG        CLOUDY    39  27  62 E5        29.88S
$$

IDZ006-010-011-018-031-032-290700-
CENTRAL IDAHO MOUNTAINS


CITY           SKY/WX    TMP DP  RH WIND       PRES   REMARKS
MCCALL         CLOUDY    40  35  83 W5        29.91S
HAILEY         DRIZZLE   43  37  81 CALM      29.92S
STANLEY          N/A     37  31  78 CALM      29.92F
SALMON         PTCLDY    39  32  75 N7        29.95F WCI  34
CHALLIS        CLOUDY    40  30  67 NW7       29.91F
$$

IDZ002-004-006-007-026-290700-
NORTHERN IDAHO


CITY           SKY/WX    TMP DP  RH WIND       PRES   REMARKS
LEWISTON       CLOUDY    53  48  83 CALM      29.95F
LOWELL           N/A     49  44  83 CALM      29.98S
COEUR D`ALENE  CLOUDY    52  30  43 E7        29.96F
MULLAN PASS    CLOUDY    31  29  92 E6        29.96F WCI  25
$$




USA.gov is the U.S. government's official web portal to all federal, state and local government web resources and services.